Terminal Aerodrome Forecast
Issued by NWS Missoula, MT

Home | Current Version | Previous Version | Text Only | Print | Product List | Glossary On
Versions: 1 2 3 4 5 6 7 8 9 10 11 12 13 14 15 16
000
FTUS45 KMSO 222337
TAFBTM
TAF
KBTM 222337Z 2300/2324 24005KT P6SM SKC
     FM230900 18006KT P6SM BKN120
     FM231800 23014G23KT P6SM BKN070=

USA.gov is the U.S. government's official web portal to all federal, state and local government web resources and services.